Peru, IL

5:23 PM CDT on October 18, 2017 (GMT -0500)
Illinois Valley Regional-Duncan

Weather History for KVYS - December, 2010

Change the Weather History Date:

Wednesday, December 1, 2010

  Actual Average Record
Temperature  
Mean Temperature 24 °F -  
Max Temperature 25 °F 39 °F 61 °F (2012)
Min Temperature 23 °F 25 °F 11 °F (1966)
Degree Days  
Heating Degree Days 41    
Moisture  
Dew Point 18 °F    
Average Humidity 75    
Maximum Humidity 81    
Minimum Humidity 72    
Precipitation  
Precipitation 0.00 in - - ()
Sea Level Pressure  
Sea Level Pressure 29.95 in    
Wind  
Wind Speed 18 mph (West)    
Max Wind Speed 24 mph    
Max Gust Speed 31 mph    
Visibility 9 miles    
Events Snow    
Averages and records for this station are not official NWS values.
T = Trace of Precipitation, MM = Missing Value Source: NWS Daily Summary

Daily Weather History Graph

Daily Weather History Graph

Search for Another Location

Airport or City:

Trip Planner

Search our weather history database for the weather conditions in past years. The results will help you decide how hot, cold, wet, or windy it might be!

Date:

Astronomy

Dec. 01, 2010 Rise Set
Actual Time 7:03 AM CST 4:28 PM CST
Civil Twilight 6:32 AM CST 4:58 PM CST
Nautical Twilight 5:58 AM CST 5:33 PM CST
Astronomical Twilight 5:24 AM CST 6:06 PM CST
Moon 2:26 AM CST (12/1) 1:31 PM CST (12/1)
Length of Visible Light 10h 26m
Length of Day
9h 24m
Waning Crescent, 19% of the Moon is Illuminated
Dec 1
Waning Crescent
Dec 5
New
Dec 13
First Quarter
Dec 21
Full
Dec 27
Last Quarter

Hourly Weather History & Observations

Time (CST) Temp. Windchill Dew Point Humidity Pressure Visibility Wind Dir Wind Speed Gust Speed Precip Events Conditions
12:05 AM 25.7 °F 12.7 °F 19.2 °F 76% 29.86 in 10.0 mi West 17.3 mph 27.6 mph N/A   Overcast
12:25 AM 25.7 °F 13.1 °F 19.2 °F 76% 29.86 in 10.0 mi West 16.1 mph 25.3 mph N/A   Overcast
12:45 AM 25.5 °F 12.0 °F 19.2 °F 77% 29.86 in 10.0 mi West 18.4 mph 25.3 mph N/A   Overcast
1:05 AM 25.5 °F 12.0 °F 18.5 °F 75% 29.86 in 10.0 mi West 18.4 mph 28.8 mph N/A   Overcast
1:25 AM 25.3 °F 11.0 °F 18.0 °F 74% 29.86 in 10.0 mi West 20.7 mph 26.5 mph N/A   Overcast
1:45 AM 24.8 °F 10.7 °F 17.6 °F 74% 29.87 in 10.0 mi West 19.6 mph 27.6 mph N/A   Overcast
2:05 AM 25.3 °F 11.4 °F 17.6 °F 72% 29.88 in 10.0 mi West 19.6 mph 27.6 mph N/A   Overcast
2:25 AM 25.3 °F 11.8 °F 18.0 °F 74% 29.88 in 10.0 mi West 18.4 mph 25.3 mph N/A   Overcast
2:45 AM 25.0 °F 9.5 °F 18.0 °F 75% 29.88 in 10.0 mi West 24.2 mph 28.8 mph N/A   Overcast
3:05 AM 24.8 °F 11.9 °F 18.1 °F 76% 29.89 in 10.0 mi West 16.1 mph 26.5 mph N/A   Overcast
3:25 AM 24.8 °F 11.5 °F 17.6 °F 74% 29.89 in 10.0 mi West 17.3 mph 24.2 mph N/A   Overcast
3:45 AM 24.8 °F 10.3 °F 18.1 °F 76% 29.89 in 10.0 mi West 20.7 mph 26.5 mph N/A   Overcast
4:05 AM 24.4 °F 9.9 °F 17.6 °F 75% 29.90 in 10.0 mi West 20.7 mph 26.5 mph N/A   Overcast
4:25 AM 24.3 °F 10.0 °F 17.2 °F 75% 29.89 in 10.0 mi West 19.6 mph 25.3 mph N/A   Overcast
4:45 AM 23.9 °F 10.8 °F 16.3 °F 73% 29.90 in 10.0 mi West 16.1 mph 27.6 mph N/A   Overcast
5:05 AM 23.9 °F 11.2 °F 16.7 °F 74% 29.90 in 10.0 mi West 15.0 mph 24.2 mph N/A   Overcast
5:25 AM 23.9 °F 11.2 °F 17.2 °F 76% 29.90 in 10.0 mi West 15.0 mph 25.3 mph N/A   Overcast
5:45 AM 23.9 °F 8.8 °F 16.9 °F 75% 29.90 in 10.0 mi West 21.9 mph 28.8 mph N/A   Overcast
6:05 AM 23.9 °F 8.4 °F 16.5 °F 73% 29.91 in 10.0 mi West 23.0 mph 26.5 mph N/A   Overcast
6:25 AM 23.7 °F 10.5 °F 16.2 °F 73% 29.91 in 10.0 mi West 16.1 mph 27.6 mph N/A   Overcast
6:45 AM 23.7 °F 9.3 °F 15.8 °F 72% 29.92 in 10.0 mi West 19.6 mph 26.5 mph N/A   Overcast
7:05 AM 23.4 °F 9.6 °F 16.5 °F 75% 29.93 in 10.0 mi West 17.3 mph 21.9 mph N/A   Overcast
7:25 AM 23.4 °F 10.1 °F 16.2 °F 74% 29.93 in 10.0 mi West 16.1 mph 27.6 mph N/A   Overcast
7:45 AM 23.4 °F 8.8 °F 16.0 °F 73% 29.93 in 10.0 mi West 19.6 mph 25.3 mph N/A   Overcast
8:05 AM 23.0 °F 8.7 °F 16.7 °F 77% 29.94 in 5.0 mi West 18.4 mph 29.9 mph N/A Snow Light Snow
8:25 AM 23.2 °F 9.8 °F 17.6 °F 79% 29.94 in 3.0 mi West 16.1 mph 21.9 mph N/A Snow Light Snow
8:45 AM 23.0 °F 8.7 °F 15.8 °F 74% 29.95 in 10.0 mi West 18.4 mph 26.5 mph N/A Snow Light Snow
9:05 AM 23.4 °F 8.8 °F 15.8 °F 73% 29.95 in 7.0 mi West 19.6 mph 29.9 mph N/A Snow Light Snow
9:25 AM 23.7 °F 10.5 °F 16.5 °F 74% 29.95 in 7.0 mi West 16.1 mph 24.2 mph N/A Snow Light Snow
9:45 AM 23.7 °F 10.1 °F 16.0 °F 72% 29.96 in 7.0 mi West 17.3 mph 27.6 mph N/A Snow Light Snow
10:05 AM 23.0 °F 8.7 °F 15.8 °F 74% 29.96 in 10.0 mi West 18.4 mph 29.9 mph N/A Snow Light Snow
10:25 AM 24.3 °F 10.4 °F 16.7 °F 73% 29.96 in 10.0 mi West 18.4 mph 25.3 mph N/A   Overcast
10:45 AM 24.4 °F 10.2 °F 16.7 °F 72% 29.96 in 10.0 mi West 19.6 mph 27.6 mph N/A   Overcast
11:05 AM 24.8 °F 11.5 °F 17.4 °F 74% 29.95 in 10.0 mi West 17.3 mph 24.2 mph N/A   Overcast
11:25 AM 24.8 °F 9.3 °F 17.2 °F 73% 29.95 in 10.0 mi West 24.2 mph 31.1 mph N/A   Overcast
11:45 AM 24.8 °F 10.7 °F 17.8 °F 75% 29.96 in 10.0 mi West 19.6 mph 28.8 mph N/A   Overcast
12:05 PM 25.2 °F 11.6 °F 18.1 °F 75% 29.96 in 7.0 mi West 18.4 mph 24.2 mph N/A   Overcast
12:25 PM 25.2 °F 12.0 °F 18.5 °F 76% 29.96 in 4.0 mi West 17.3 mph 25.3 mph N/A Snow Light Snow
12:45 PM 25.0 °F 12.2 °F 19.0 °F 78% 29.97 in 4.0 mi West 16.1 mph - N/A Snow Light Snow
1:05 PM 24.8 °F 11.1 °F 19.8 °F 81% 29.97 in 2.0 mi West 18.4 mph 25.3 mph N/A Snow Light Snow
1:25 PM 25.2 °F 13.3 °F 19.6 °F 79% 29.98 in 4.0 mi West 13.8 mph 24.2 mph N/A Snow Light Snow
1:45 PM 25.2 °F 11.6 °F 18.5 °F 76% 29.98 in 7.0 mi West 18.4 mph 27.6 mph N/A Snow Light Snow
2:05 PM 25.5 °F 12.9 °F 18.3 °F 74% 29.98 in 10.0 mi West 16.1 mph 24.2 mph N/A   Overcast
2:25 PM 25.5 °F 11.6 °F 17.8 °F 72% 29.99 in 10.0 mi West 19.6 mph 27.6 mph N/A   Overcast
2:45 PM 25.5 °F 12.4 °F 19.4 °F 78% 30.00 in 10.0 mi West 17.3 mph 23.0 mph N/A   Overcast
3:05 PM 25.5 °F 12.4 °F 18.1 °F 74% 30.01 in 10.0 mi West 17.3 mph 25.3 mph N/A   Overcast
3:25 PM 25.5 °F 14.3 °F 18.3 °F 74% 30.02 in 10.0 mi West 12.7 mph 21.9 mph N/A   Overcast
3:45 PM 25.5 °F 13.3 °F 18.5 °F 75% 30.03 in 10.0 mi West 15.0 mph 23.0 mph N/A   Overcast
4:04 PM 25.5 °F 12.0 °F 18.5 °F 75% 30.03 in 10.0 mi West 18.4 mph 25.3 mph N/A   Overcast
4:47 PM 24.8 °F 11.1 °F 17.6 °F 74% 30.04 in 10.0 mi West 18.4 mph 23.0 mph N/A   Overcast
5:07 PM 24.8 °F 12.9 °F 17.6 °F 74% 30.04 in 10.0 mi West 13.8 mph - N/A   Overcast
5:27 PM 24.8 °F 12.4 °F 17.6 °F 74% 30.05 in 10.0 mi West 15.0 mph 19.6 mph N/A   Overcast
5:47 PM 24.8 °F 11.9 °F 17.6 °F 74% 30.05 in 10.0 mi West 16.1 mph 25.3 mph N/A   Overcast
6:05 PM 25.7 °F 13.5 °F 18.1 °F 73% 30.05 in 10.0 mi West 15.0 mph 25.3 mph N/A   Overcast
6:08 PM 24.8 °F 11.9 °F 17.6 °F 74% 30.06 in 10.0 mi West 16.1 mph 25.3 mph N/A   Overcast
6:25 PM 25.7 °F 13.5 °F 18.1 °F 73% 30.06 in 10.0 mi West 15.0 mph - N/A   Overcast
6:45 PM 25.7 °F 12.7 °F 18.3 °F 74% 30.06 in 10.0 mi West 17.3 mph - N/A   Overcast
7:05 PM 25.5 °F 13.3 °F 18.3 °F 74% 30.06 in 10.0 mi West 15.0 mph 18.4 mph N/A   Overcast
7:25 PM 25.5 °F 13.3 °F 18.5 °F 75% 30.07 in 10.0 mi West 15.0 mph 20.7 mph N/A   Overcast
7:45 PM 25.5 °F 14.3 °F 18.5 °F 75% 30.07 in 10.0 mi West 12.7 mph - N/A   Overcast
8:05 PM 25.5 °F 13.8 °F 18.5 °F 75% 30.06 in 10.0 mi West 13.8 mph - N/A   Overcast
8:25 PM 25.7 °F 14.6 °F 18.7 °F 75% 30.07 in 10.0 mi WSW 12.7 mph - N/A   Overcast
8:45 PM 25.7 °F 15.7 °F 18.9 °F 75% 30.07 in 10.0 mi WSW 10.4 mph - N/A   Overcast
9:05 PM 25.5 °F 15.5 °F 19.0 °F 76% 30.07 in 10.0 mi WSW 10.4 mph - N/A   Overcast
9:25 PM 24.8 °F 16.1 °F 18.7 °F 78% 30.07 in 10.0 mi WSW 8.1 mph - N/A   Scattered Clouds
9:46 PM 24.3 °F 14.6 °F 18.5 °F 79% 30.06 in 10.0 mi West 9.2 mph - N/A   Clear
10:05 PM 23.9 °F 12.9 °F 18.5 °F 80% 30.06 in 10.0 mi WSW 11.5 mph - N/A   Clear
10:25 PM 24.1 °F 13.7 °F 18.5 °F 79% 30.06 in 10.0 mi WSW 10.4 mph - N/A   Clear
10:45 PM 24.8 °F 14.6 °F 19.4 °F 80% 30.06 in 10.0 mi WSW 10.4 mph - N/A   Clear
11:05 PM 24.1 °F 14.4 °F 18.7 °F 80% 30.06 in 10.0 mi WSW 9.2 mph - N/A   Clear
11:25 PM 23.9 °F 14.2 °F 18.7 °F 80% 30.06 in 10.0 mi West 9.2 mph - N/A   Clear
11:45 PM 24.3 °F 14.6 °F 19.0 °F 80% 30.06 in 10.0 mi WSW 9.2 mph - N/A   Mostly Cloudy